Time,TemperatureF,DewpointF,PressureIn,WindDirection,WindDirectionDegrees,WindSpeedMPH,WindSpeedGustMPH,Humidity,HourlyPrecipIn,Conditions,Clouds,dailyrainin,SolarRadiationWatts/m^2,SoftwareType,DateUTC
2013-05-23 00:03:00,76.0,73.0,-100.00,SSE,160,1.0,3.0,90,0.00,,,0.00,0.000000,,2013-05-23 04:03:00,
2013-05-23 00:12:00,76.0,73.0,-100.00,SSE,160,1.0,3.0,90,0.00,,,0.00,0.000000,,2013-05-23 04:12:00,
2013-05-23 00:23:00,76.0,73.0,-100.00,SSE,160,1.0,3.0,90,0.00,,,0.00,0.000000,,2013-05-23 04:23:00,
2013-05-23 00:33:00,76.0,73.0,-100.00,SSE,160,1.0,3.0,90,0.00,,,0.00,0.000000,,2013-05-23 04:33:00,
2013-05-23 00:52:00,77.0,73.0,-100.00,South,179,3.0,8.0,87,0.00,,,0.00,0.000000,,2013-05-23 04:52:00,
2013-05-23 01:02:00,77.0,73.0,-100.00,South,179,3.0,8.0,87,0.00,,,0.00,0.000000,,2013-05-23 05:02:00,
2013-05-23 01:11:00,77.0,73.0,-100.00,South,179,3.0,8.0,87,0.00,,,0.00,0.000000,,2013-05-23 05:11:00,
2013-05-23 01:22:00,77.0,73.0,-100.00,South,179,3.0,8.0,87,0.00,,,0.00,0.000000,,2013-05-23 05:22:00,
2013-05-23 01:32:00,77.0,73.0,-100.00,South,179,3.0,8.0,87,0.00,,,0.00,0.000000,,2013-05-23 05:32:00,
2013-05-23 01:52:00,76.0,73.0,-100.00,SSE,153,3.0,5.0,89,0.00,,,0.00,0.000000,,2013-05-23 05:52:00,
2013-05-23 02:02:00,76.0,73.0,-100.00,SSE,153,3.0,5.0,89,0.00,,,0.00,0.000000,,2013-05-23 06:02:00,
2013-05-23 02:12:00,76.0,73.0,-100.00,SSE,153,3.0,5.0,89,0.00,,,0.00,0.000000,,2013-05-23 06:12:00,
2013-05-23 02:22:00,76.0,73.0,-100.00,SSE,153,3.0,5.0,89,0.00,,,0.00,0.000000,,2013-05-23 06:22:00,
2013-05-23 02:32:00,76.0,73.0,-100.00,SSE,153,3.0,5.0,89,0.00,,,0.00,0.000000,,2013-05-23 06:32:00,
2013-05-23 02:52:00,77.0,72.0,-100.00,South,183,3.0,6.0,85,0.00,,,0.00,0.000000,,2013-05-23 06:52:00,
2013-05-23 03:02:00,77.0,72.0,-100.00,South,183,3.0,6.0,85,0.00,,,0.00,0.000000,,2013-05-23 07:02:00,
2013-05-23 03:11:00,77.0,72.0,-100.00,South,183,3.0,6.0,85,0.00,,,0.00,0.000000,,2013-05-23 07:11:00,
2013-05-23 03:22:00,77.0,72.0,-100.00,South,183,3.0,6.0,85,0.00,,,0.00,0.000000,,2013-05-23 07:22:00,
2013-05-23 03:32:00,77.0,72.0,-100.00,South,183,3.0,6.0,85,0.00,,,0.00,0.000000,,2013-05-23 07:32:00,
2013-05-23 04:02:00,77.0,72.0,-100.00,South,177,2.0,5.0,86,0.00,,,0.00,0.000000,,2013-05-23 08:02:00,
2013-05-23 04:12:00,77.0,72.0,-100.00,South,177,2.0,5.0,86,0.00,,,0.00,0.000000,,2013-05-23 08:12:00,
2013-05-23 04:22:00,77.0,72.0,-100.00,South,177,2.0,5.0,86,0.00,,,0.00,0.000000,,2013-05-23 08:22:00,
2013-05-23 04:32:00,77.0,72.0,-100.00,South,177,2.0,5.0,86,0.00,,,0.00,0.000000,,2013-05-23 08:32:00,
2013-05-23 04:52:00,76.0,71.0,-100.00,SSW,193,3.0,5.0,85,0.00,,,0.00,0.000000,,2013-05-23 08:52:00,
2013-05-23 05:02:00,76.0,71.0,-100.00,SSW,193,3.0,5.0,85,0.00,,,0.00,0.000000,,2013-05-23 09:02:00,
2013-05-23 05:11:00,76.0,71.0,-100.00,SSW,193,3.0,5.0,85,0.00,,,0.00,0.000000,,2013-05-23 09:11:00,
2013-05-23 05:22:00,76.0,71.0,-100.00,SSW,193,3.0,5.0,85,0.00,,,0.00,0.000000,,2013-05-23 09:22:00,
2013-05-23 05:33:00,76.0,71.0,-100.00,SSW,193,3.0,5.0,85,0.00,,,0.00,0.000000,,2013-05-23 09:33:00,
2013-05-23 05:53:00,78.0,72.0,-100.00,SSW,208,3.0,6.0,81,0.00,,,0.00,0.000000,,2013-05-23 09:53:00,
2013-05-23 06:03:00,78.0,72.0,-100.00,SSW,208,3.0,6.0,81,0.00,,,0.00,0.000000,,2013-05-23 10:03:00,
2013-05-23 06:13:00,78.0,72.0,-100.00,SSW,208,3.0,6.0,81,0.00,,,0.00,0.000000,,2013-05-23 10:13:00,
2013-05-23 06:22:00,78.0,72.0,-100.00,SSW,208,3.0,6.0,81,0.00,,,0.00,0.000000,,2013-05-23 10:22:00,
2013-05-23 06:32:00,78.0,72.0,-100.00,SSW,208,3.0,6.0,81,0.00,,,0.00,0.000000,,2013-05-23 10:32:00,
2013-05-23 06:52:00,78.0,72.0,-100.00,SSW,204,3.0,8.0,83,0.00,,,0.00,0.000000,,2013-05-23 10:52:00,
2013-05-23 07:02:00,78.0,72.0,-100.00,SSW,204,3.0,8.0,83,0.00,,,0.00,0.000000,,2013-05-23 11:02:00,
2013-05-23 07:12:00,78.0,72.0,-100.00,SSW,204,3.0,8.0,83,0.00,,,0.00,0.000000,,2013-05-23 11:12:00,
2013-05-23 07:22:00,78.0,72.0,-100.00,SSW,204,3.0,8.0,83,0.00,,,0.00,0.000000,,2013-05-23 11:22:00,
2013-05-23 07:32:00,78.0,72.0,-100.00,SSW,204,3.0,8.0,83,0.00,,,0.00,0.000000,,2013-05-23 11:32:00,
2013-05-23 07:52:00,81.0,74.0,-100.00,SSW,200,4.0,8.0,79,0.00,,,0.00,45.000000,,2013-05-23 11:52:00,
2013-05-23 08:02:00,81.0,74.0,-100.00,SSW,200,4.0,8.0,79,0.00,,,0.00,45.000000,,2013-05-23 12:02:00,
2013-05-23 08:12:00,81.0,74.0,-100.00,SSW,200,4.0,8.0,79,0.00,,,0.00,45.000000,,2013-05-23 12:12:00,
2013-05-23 08:22:00,81.0,74.0,-100.00,SSW,200,4.0,8.0,79,0.00,,,0.00,45.000000,,2013-05-23 12:22:00,
2013-05-23 08:32:00,81.0,74.0,-100.00,SSW,200,4.0,8.0,79,0.00,,,0.00,45.000000,,2013-05-23 12:32:00,
2013-05-23 09:02:00,84.0,73.0,-100.00,SW,222,5.0,9.0,70,0.00,,,0.00,234.000000,,2013-05-23 13:02:00,
2013-05-23 09:11:00,84.0,73.0,-100.00,SW,222,5.0,9.0,70,0.00,,,0.00,234.000000,,2013-05-23 13:11:00,
2013-05-23 09:22:00,84.0,73.0,-100.00,SW,222,5.0,9.0,70,0.00,,,0.00,234.000000,,2013-05-23 13:22:00,
2013-05-23 09:32:00,84.0,73.0,-100.00,SW,222,5.0,9.0,70,0.00,,,0.00,234.000000,,2013-05-23 13:32:00,
2013-05-23 09:52:00,86.0,73.0,-100.00,WSW,249,5.0,10.0,65,0.00,,,0.00,433.000000,,2013-05-23 13:52:00,
2013-05-23 10:02:00,86.0,73.0,-100.00,WSW,249,5.0,10.0,65,0.00,,,0.00,433.000000,,2013-05-23 14:02:00,
2013-05-23 10:11:00,86.0,73.0,-100.00,WSW,249,5.0,10.0,65,0.00,,,0.00,433.000000,,2013-05-23 14:11:00,
2013-05-23 10:21:00,86.0,73.0,-100.00,WSW,249,5.0,10.0,65,0.00,,,0.00,433.000000,,2013-05-23 14:21:00,
2013-05-23 10:32:00,86.0,73.0,-100.00,WSW,249,5.0,10.0,65,0.00,,,0.00,433.000000,,2013-05-23 14:32:00,
2013-05-23 10:52:00,88.0,73.0,-100.00,West,267,5.0,10.0,61,0.00,,,0.00,600.000000,,2013-05-23 14:52:00,
2013-05-23 11:01:00,88.0,73.0,-100.00,West,267,5.0,10.0,61,0.00,,,0.00,600.000000,,2013-05-23 15:01:00,
2013-05-23 11:11:00,88.0,73.0,-100.00,West,267,5.0,10.0,61,0.00,,,0.00,600.000000,,2013-05-23 15:11:00,
2013-05-23 11:22:00,88.0,73.0,-100.00,West,267,5.0,10.0,61,0.00,,,0.00,600.000000,,2013-05-23 15:22:00,
2013-05-23 11:33:00,88.0,73.0,-100.00,West,267,5.0,10.0,61,0.00,,,0.00,600.000000,,2013-05-23 15:33:00,
2013-05-23 11:53:00,89.0,75.0,-100.00,NW,308,6.0,12.0,63,0.00,,,0.00,773.000000,,2013-05-23 15:53:00,
2013-05-23 12:03:00,89.0,75.0,-100.00,NW,308,6.0,12.0,63,0.00,,,0.00,773.000000,,2013-05-23 16:03:00,
2013-05-23 12:13:00,89.0,75.0,-100.00,NW,308,6.0,12.0,63,0.00,,,0.00,773.000000,,2013-05-23 16:13:00,
2013-05-23 12:23:00,89.0,75.0,-100.00,NW,308,6.0,12.0,63,0.00,,,0.00,773.000000,,2013-05-23 16:23:00,
2013-05-23 12:34:00,89.0,75.0,-100.00,NW,308,6.0,12.0,63,0.00,,,0.00,773.000000,,2013-05-23 16:34:00,
2013-05-23 12:53:00,89.0,74.0,-100.00,NW,323,6.0,12.0,62,0.00,,,0.00,896.000000,,2013-05-23 16:53:00,
2013-05-23 13:03:00,89.0,74.0,-100.00,NW,323,6.0,12.0,62,0.00,,,0.00,896.000000,,2013-05-23 17:03:00,
2013-05-23 13:12:00,89.0,74.0,-100.00,NW,323,6.0,12.0,62,0.00,,,0.00,896.000000,,2013-05-23 17:12:00,
2013-05-23 13:23:00,89.0,74.0,-100.00,NW,323,6.0,12.0,62,0.00,,,0.00,896.000000,,2013-05-23 17:23:00,
2013-05-23 13:33:00,89.0,74.0,-100.00,NW,323,6.0,12.0,62,0.00,,,0.00,896.000000,,2013-05-23 17:33:00,
2013-05-23 13:53:00,88.0,75.0,-100.00,NNW,341,8.0,14.0,66,0.00,,,0.00,644.000000,,2013-05-23 17:53:00,
2013-05-23 14:02:00,88.0,75.0,-100.00,NNW,341,8.0,14.0,66,0.00,,,0.00,644.000000,,2013-05-23 18:02:00,
2013-05-23 14:11:00,88.0,75.0,-100.00,NNW,341,8.0,14.0,66,0.00,,,0.00,644.000000,,2013-05-23 18:11:00,
2013-05-23 14:22:00,88.0,75.0,-100.00,NNW,341,8.0,14.0,66,0.00,,,0.00,644.000000,,2013-05-23 18:22:00,
2013-05-23 14:32:00,88.0,75.0,-100.00,NNW,341,8.0,14.0,66,0.00,,,0.00,644.000000,,2013-05-23 18:32:00,
2013-05-23 15:02:00,88.0,74.0,-100.00,NNW,343,7.0,15.0,64,0.00,,,0.00,752.000000,,2013-05-23 19:02:00,
2013-05-23 15:11:00,88.0,74.0,-100.00,NNW,343,7.0,15.0,64,0.00,,,0.00,752.000000,,2013-05-23 19:11:00,
2013-05-23 15:21:00,88.0,74.0,-100.00,NNW,343,7.0,15.0,64,0.00,,,0.00,752.000000,,2013-05-23 19:21:00,
2013-05-23 15:32:00,88.0,74.0,-100.00,NNW,343,7.0,15.0,64,0.00,,,0.00,752.000000,,2013-05-23 19:32:00,
2013-05-23 15:52:00,87.0,73.0,-100.00,North,350,8.0,14.0,64,0.00,,,0.00,824.000000,,2013-05-23 19:52:00,
2013-05-23 16:02:00,87.0,73.0,-100.00,North,350,8.0,14.0,64,0.00,,,0.00,824.000000,,2013-05-23 20:02:00,
2013-05-23 16:12:00,87.0,73.0,-100.00,North,350,8.0,14.0,64,0.00,,,0.00,824.000000,,2013-05-23 20:12:00,
2013-05-23 16:22:00,87.0,73.0,-100.00,North,350,8.0,14.0,64,0.00,,,0.00,824.000000,,2013-05-23 20:22:00,
2013-05-23 16:32:00,87.0,73.0,-100.00,North,350,8.0,14.0,64,0.00,,,0.00,824.000000,,2013-05-23 20:32:00,
2013-05-23 16:52:00,87.0,73.0,-100.00,North,2,7.0,13.0,63,0.00,,,0.00,736.000000,,2013-05-23 20:52:00,
2013-05-23 17:01:00,87.0,73.0,-100.00,North,2,7.0,13.0,63,0.00,,,0.00,736.000000,,2013-05-23 21:01:00,
2013-05-23 17:11:00,87.0,73.0,-100.00,North,2,7.0,13.0,63,0.00,,,0.00,736.000000,,2013-05-23 21:11:00,
2013-05-23 17:22:00,87.0,73.0,-100.00,North,2,7.0,13.0,63,0.00,,,0.00,736.000000,,2013-05-23 21:22:00,
2013-05-23 17:32:00,87.0,73.0,-100.00,North,2,7.0,13.0,63,0.00,,,0.00,736.000000,,2013-05-23 21:32:00,
2013-05-23 17:53:00,87.0,73.0,-100.00,NNW,340,5.0,11.0,64,0.00,,,0.00,494.000000,,2013-05-23 21:53:00,
2013-05-23 18:03:00,87.0,73.0,-100.00,NNW,340,5.0,11.0,64,0.00,,,0.00,494.000000,,2013-05-23 22:03:00,
2013-05-23 18:12:00,87.0,73.0,-100.00,NNW,340,5.0,11.0,64,0.00,,,0.00,494.000000,,2013-05-23 22:12:00,
2013-05-23 18:23:00,87.0,73.0,-100.00,NNW,340,5.0,11.0,64,0.00,,,0.00,494.000000,,2013-05-23 22:23:00,
2013-05-23 18:33:00,87.0,73.0,-100.00,NNW,340,5.0,11.0,64,0.00,,,0.00,494.000000,,2013-05-23 22:33:00,
2013-05-23 18:52:00,86.0,73.0,-100.00,North,352,5.0,10.0,65,0.00,,,0.00,331.000000,,2013-05-23 22:52:00,
2013-05-23 19:02:00,86.0,73.0,-100.00,North,352,5.0,10.0,65,0.00,,,0.00,331.000000,,2013-05-23 23:02:00,
2013-05-23 19:12:00,86.0,73.0,-100.00,North,352,5.0,10.0,65,0.00,,,0.00,331.000000,,2013-05-23 23:12:00,
2013-05-23 19:22:00,86.0,73.0,-100.00,North,352,5.0,10.0,65,0.00,,,0.00,331.000000,,2013-05-23 23:22:00,
2013-05-23 19:32:00,86.0,73.0,-100.00,North,352,5.0,10.0,65,0.00,,,0.00,331.000000,,2013-05-23 23:32:00,
2013-05-23 19:52:00,83.0,73.0,-100.00,North,354,4.0,8.0,71,0.00,,,0.00,138.000000,,2013-05-23 23:52:00,
2013-05-23 20:01:00,83.0,73.0,-100.00,North,354,4.0,8.0,71,0.00,,,0.00,138.000000,,2013-05-24 00:01:00,
2013-05-23 20:12:00,83.0,73.0,-100.00,North,354,4.0,8.0,71,0.00,,,0.00,138.000000,,2013-05-24 00:12:00,
2013-05-23 20:21:00,83.0,73.0,-100.00,North,354,4.0,8.0,71,0.00,,,0.00,138.000000,,2013-05-24 00:21:00,
2013-05-23 20:32:00,83.0,73.0,-100.00,North,354,4.0,8.0,71,0.00,,,0.00,138.000000,,2013-05-24 00:32:00,
2013-05-23 21:01:00,78.0,72.0,-100.00,NW,321,3.0,4.0,81,0.00,,,0.00,11.000000,,2013-05-24 01:01:00,
2013-05-23 21:12:00,78.0,72.0,-100.00,NW,321,3.0,4.0,81,0.00,,,0.00,11.000000,,2013-05-24 01:12:00,
2013-05-23 21:22:00,78.0,72.0,-100.00,NW,321,3.0,4.0,81,0.00,,,0.00,11.000000,,2013-05-24 01:22:00,
2013-05-23 21:32:00,78.0,72.0,-100.00,NW,321,3.0,4.0,81,0.00,,,0.00,11.000000,,2013-05-24 01:32:00,
2013-05-23 21:52:00,78.0,73.0,-100.00,WNW,301,2.0,6.0,84,0.00,,,0.00,0.000000,,2013-05-24 01:52:00,
2013-05-23 22:02:00,78.0,73.0,-100.00,WNW,301,2.0,6.0,84,0.00,,,0.00,0.000000,,2013-05-24 02:02:00,
2013-05-23 22:12:00,78.0,73.0,-100.00,WNW,301,2.0,6.0,84,0.00,,,0.00,0.000000,,2013-05-24 02:12:00,
2013-05-23 22:22:00,78.0,73.0,-100.00,WNW,301,2.0,6.0,84,0.00,,,0.00,0.000000,,2013-05-24 02:22:00,
2013-05-23 22:32:00,78.0,73.0,-100.00,WNW,301,2.0,6.0,84,0.00,,,0.00,0.000000,,2013-05-24 02:32:00,
2013-05-23 23:02:00,75.0,71.0,-100.00,WSW,258,1.0,3.0,88,0.00,,,0.00,0.000000,,2013-05-24 03:02:00,
2013-05-23 23:11:00,75.0,71.0,-100.00,WSW,258,1.0,3.0,88,0.00,,,0.00,0.000000,,2013-05-24 03:11:00,
2013-05-23 23:22:00,75.0,71.0,-100.00,WSW,258,1.0,3.0,88,0.00,,,0.00,0.000000,,2013-05-24 03:22:00,
2013-05-23 23:33:00,75.0,71.0,-100.00,WSW,258,1.0,3.0,88,0.00,,,0.00,0.000000,,2013-05-24 03:33:00,
2013-05-23 23:53:00,72.0,70.0,-100.00,SSW,194,1.0,3.0,92,0.00,,,0.00,0.000000,,2013-05-24 03:53:00,